This is the latest recevied weather packets stored in our database for station/object KE6YLF. If no packets are shown the sender has not sent any weather packets the latest 1 day(s).
| Time | Temp. | Humidity | Pressure | Rain* | Wind** | Luminosity | Snow |
|---|---|---|---|---|---|---|---|
| 1778118774 | 25.56° C | 23% | 1076.6 hPa | 0 mm | - | - | - |
| 1778118471 | 25.56° C | 22% | 1076.5 hPa | 0 mm | - | - | - |
| 1778118167 | 26.11° C | 22% | 1076.5 hPa | 0 mm | - | - | - |
| 1778117561 | 26.11° C | 22% | 1076.2 hPa | 0 mm | - | - | - |
| 1778117258 | 26.11° C | 22% | 1076.5 hPa | 0 mm | - | - | - |
| 1778116652 | 26.67° C | 22% | 1076.4 hPa | 0 mm | - | - | - |
| 1778116348 | 26.67° C | 22% | 1076.4 hPa | 0 mm | - | - | - |
| 1778116047 | 26.67° C | 22% | 1076.3 hPa | 0 mm | - | - | - |
| 1778114834 | 27.22° C | 22% | 1076.5 hPa | 0 mm | - | - | - |
| 1778114532 | 26.67° C | 22% | 1076.5 hPa | 0 mm | - | - | - |
| 1778114228 | 27.22° C | 22% | 1076.4 hPa | 0 mm | - | - | - |
| 1778112710 | 27.78° C | 21% | 1076.4 hPa | 0 mm | - | - | - |
| 1778111197 | 27.22° C | 22% | 1076.3 hPa | 0 mm | - | - | - |
| 1778110894 | 26.11° C | 23% | 1076.4 hPa | 0 mm | - | - | - |
| 1778110591 | 26.67° C | 22% | 1076.3 hPa | 0 mm | - | - | - |
| 1778109984 | 27.22° C | 22% | 1076.4 hPa | 0 mm | - | - | - |
| 1778109377 | 27.22° C | 21% | 1076.6 hPa | 0 mm | - | - | - |
| 1778107255 | 26.67° C | 22% | 1077 hPa | 0 mm | - | - | - |
| 1778106041 | 27.78° C | 21% | 1077.2 hPa | 0 mm | - | - | - |
| 1778105132 | 27.78° C | 20% | 1077.2 hPa | 0 mm | - | - | - |
| 1778104525 | 27.22° C | 21% | 1077.3 hPa | 0 mm | - | - | - |
| 1778103918 | 27.78° C | 21% | 1077.6 hPa | 0 mm | - | - | - |
| 1778103615 | 27.78° C | 22% | 1077.7 hPa | 0 mm | - | - | - |
| 1778102401 | 26.11° C | 23% | 1077.9 hPa | 0 mm | - | - | - |
| 1778102097 | 26.67° C | 23% | 1078 hPa | 0 mm | - | - | - |
* Rain latest hour (hover to see other rain measurements)
** Current wind speed in m/s (hover to see current wind gust speed)